N0MPM-4 Weather Reports


time (UTC)temp
C
wind
direction
speed
KPH
gust
KPH
rain 1hr
cm
rain 24hr
cm
rain mn
cm
humidity
%
barometer
mb
20260504140948 18 230 0.0 0.0 0.00 0.00 0.00 56 1001.3
20260504140448 18 142 1.6 8.0 0.00 0.00 0.00 56 1001.3
20260504130449 14 146 1.6 11.3 0.00 0.00 0.00 62 1001.8
20260504110449 10 203 0.0 0.0 0.00 0.00 0.00 67 1002.6
20260504100449 11 148 0.0 1.6 0.00 0.00 0.00 65 1003.2
20260504081950 10 160 0.0 0.0 0.00 0.00 0.00 67 1004.2
20260504081450 10 160 0.0 0.0 0.00 0.00 0.00 65 1004.2
20260504080950 11 160 0.0 0.0 0.00 0.00 0.00 65 1004.4
20260504080450 11 160 0.0 0.0 0.00 0.00 0.00 64 1004.4
20260504050451 11 211 0.0 0.0 0.00 0.00 0.00 65 1006.3
20260504045951 11 211 0.0 0.0 0.00 0.00 0.00 65 1006.4
20260504045451 11 211 0.0 0.0 0.00 0.00 0.00 66 1006.3
20260504044951 11 211 0.0 0.0 0.00 0.00 0.00 64 1006.4
20260504044451 11 211 0.0 0.0 0.00 0.00 0.00 64 1006.5
20260504043951 11 211 0.0 0.0 0.00 0.00 0.00 63 1006.6
20260504043451 11 212 0.0 0.0 0.00 0.00 0.00 62 1006.6
20260504042951 11 211 0.0 0.0 0.00 0.00 0.00 61 1006.7
20260504042451 12 211 0.0 0.0 0.00 0.00 0.00 60 1006.7
20260504041951 12 211 0.0 0.0 0.00 0.00 0.00 59 1006.8
20260504041451 12 211 0.0 0.0 0.00 0.00 0.00 57 1006.8
20260504040951 12 211 0.0 0.0 0.00 0.00 0.00 58 1006.9
20260504040451 12 211 0.0 0.0 0.00 0.00 0.00 60 1006.9
20260504035951 12 211 0.0 0.0 0.00 0.00 0.00 59 1006.9
20260504035451 12 211 0.0 0.0 0.00 0.00 0.00 58 1006.9
20260504034951 12 211 0.0 0.0 0.00 0.00 0.00 58 1007.1
20260504034451 12 211 0.0 0.0 0.00 0.00 0.00 58 1007.2
20260504033951 12 211 0.0 0.0 0.00 0.00 0.00 57 1007.2
20260504033451 13 211 0.0 0.0 0.00 0.00 0.00 57 1007.3
20260504032951 13 211 0.0 0.0 0.00 0.00 0.00 56 1007.3
20260504032451 13 212 0.0 0.0 0.00 0.00 0.00 55 1007.3
20260504031951 13 211 0.0 0.0 0.00 0.00 0.00 55 1007.4
20260504031451 13 211 0.0 0.0 0.00 0.00 0.00 54 1007.4
20260504030951 13 211 0.0 0.0 0.00 0.00 0.00 54 1007.4
20260504030451 13 211 0.0 0.0 0.00 0.00 0.00 53 1007.4
20260504025951 13 211 0.0 0.0 0.00 0.00 0.00 52 1007.4
20260504025451 14 213 0.0 0.0 0.00 0.00 0.00 52 1007.4
20260504024951 14 210 0.0 0.0 0.00 0.00 0.00 51 1007.4
20260504024451 15 210 0.0 0.0 0.00 0.00 0.00 49 1007.4
20260504023951 15 210 0.0 0.0 0.00 0.00 0.00 47 1007.4
20260504023451 15 210 0.0 0.0 0.00 0.00 0.00 47 1007.4
20260504022951 15 210 0.0 0.0 0.00 0.00 0.00 47 1007.3
20260504022451 15 210 0.0 0.0 0.00 0.00 0.00 47 1007.3
20260504021951 15 210 0.0 0.0 0.00 0.00 0.00 47 1007.2
20260504021451 15 210 0.0 0.0 0.00 0.00 0.00 46 1007.2
20260504020951 15 252 0.0 0.0 0.00 0.00 0.00 46 1007.1
20260504020451 15 266 0.0 0.0 0.00 0.00 0.00 48 1007.2
20260504015951 15 280 0.0 0.0 0.00 0.00 0.00 47 1007.2
20260504015451 16 279 0.0 0.0 0.00 0.00 0.00 44 1007.2
20260504014951 16 280 0.0 0.0 0.00 0.00 0.00 42 1007.2
20260504014452 17 280 0.0 0.0 0.00 0.00 0.00 41 1007.1
20260504013952 17 280 0.0 0.0 0.00 0.00 0.00 38 1007.1
20260504013452 18 280 0.0 0.0 0.00 0.00 0.00 35 1007.1
20260504012952 18 280 0.0 0.0 0.00 0.00 0.00 34 1007.1
20260504012452 18 279 0.0 0.0 0.00 0.00 0.00 32 1007.1
20260504011952 19 280 0.0 0.0 0.00 0.00 0.00 31 1007.0
20260504011452 20 280 0.0 0.0 0.00 0.00 0.00 29 1007.1
20260504010952 20 280 0.0 0.0 0.00 0.00 0.00 29 1007.1
20260504010452 20 281 0.0 0.0 0.00 0.00 0.00 28 1007.0
20260504005952 20 281 0.0 0.0 0.00 0.00 0.00 27 1007.0
20260504005452 21 281 0.0 0.0 0.00 0.00 0.00 27 1007.0
20260504004952 21 288 0.0 0.0 0.00 0.00 0.00 26 1007.1
20260504004452 22 297 0.0 0.0 0.00 0.00 0.00 25 1007.0
20260504003952 22 276 0.0 0.0 0.00 0.00 0.00 25 1007.1
20260504003452 22 291 1.6 1.6 0.00 0.00 0.00 25 1007.1
20260504002952 22 286 1.6 4.8 0.00 0.00 0.00 24 1007.1
20260504002452 22 280 1.6 4.8 0.00 0.00 0.00 25 1007.1
20260504001952 22 284 3.2 6.4 0.00 0.00 0.00 25 1007.1
20260504001452 22 296 3.2 8.0 0.00 0.00 0.00 24 1007.1
20260504000952 22 276 3.2 11.3 0.00 0.00 0.00 23 1007.1
20260504000452 23 289 3.2 9.7 0.00 0.00 0.00 26 1007.1
20260503235952 23 298 3.2 11.3 0.00 0.00 0.00 24 1007.1
20260503235452 23 295 4.8 11.3 0.00 0.00 0.00 25 1007.2
20260503234952 23 305 4.8 11.3 0.00 0.00 0.00 24 1007.2
20260503234452 23 284 3.2 14.5 0.00 0.00 0.00 24 1007.2
20260503233952 23 277 4.8 14.5 0.00 0.00 0.00 24 1007.1
20260503233452 23 300 6.4 14.5 0.00 0.00 0.00 23 1007.1
20260503232952 23 294 4.8 12.9 0.00 0.00 0.00 24 1007.1
20260503232452 23 253 4.8 16.1 0.00 0.00 0.00 24 1007.1
20260503231952 23 300 6.4 8.0 0.00 0.00 0.00 24 1007.1
20260503231452 23 289 6.4 14.5 0.00 0.00 0.00 24 1007.2
20260503230952 23 305 3.2 17.7 0.00 0.00 0.00 25 1007.2
20260503230452 23 281 3.2 11.3 0.00 0.00 0.00 25 1007.2
20260503225952 23 289 4.8 11.3 0.00 0.00 0.00 24 1007.1
20260503225452 23 300 6.4 11.3 0.00 0.00 0.00 25 1007.3
20260503224952 23 314 6.4 14.5 0.00 0.00 0.00 24 1007.3
20260503224452 23 304 4.8 12.9 0.00 0.00 0.00 24 1007.3
20260503223952 23 308 4.8 16.1 0.00 0.00 0.00 25 1007.2
20260503223452 23 302 3.2 11.3 0.00 0.00 0.00 25 1007.2
20260503222952 23 302 3.2 12.9 0.00 0.00 0.00 25 1007.3
20260503222452 23 311 3.2 9.7 0.00 0.00 0.00 26 1007.3
20260503221952 22 293 4.8 12.9 0.00 0.00 0.00 25 1007.3
20260503221452 23 304 3.2 12.9 0.00 0.00 0.00 26 1007.3
20260503220952 23 308 1.6 8.0 0.00 0.00 0.00 27 1007.3
20260503220452 23 338 1.6 9.7 0.00 0.00 0.00 26 1007.2
20260503215952 23 296 1.6 6.4 0.00 0.00 0.00 29 1007.2
20260503215453 23 311 4.8 11.3 0.00 0.00 0.00 28 1007.2
20260503214953 22 304 4.8 9.7 0.00 0.00 0.00 27 1007.3
20260503214453 22 296 4.8 9.7 0.00 0.00 0.00 26 1007.2
20260503213953 23 307 3.2 17.7 0.00 0.00 0.00 26 1007.3
20260503213453 23 300 1.6 9.7 0.00 0.00 0.00 27 1007.2
20260503212953 23 304 6.4 11.3 0.00 0.00 0.00 27 1007.2
20260503212453 23 277 8.0 16.1 0.00 0.00 0.00 27 1007.2
20260503211953 23 284 8.0 17.7 0.00 0.00 0.00 27 1007.2
20260503211453 23 281 8.0 19.3 0.00 0.00 0.00 27 1007.2
20260503210953 23 291 6.4 16.1 0.00 0.00 0.00 28 1007.3
20260503210453 23 297 6.4 12.9 0.00 0.00 0.00 26 1007.3
20260503205953 23 309 6.4 19.3 0.00 0.00 0.00 26 1007.3
20260503205453 23 302 4.8 11.3 0.00 0.00 0.00 26 1007.3
20260503204953 23 306 4.8 17.7 0.00 0.00 0.00 27 1007.5
20260503204453 23 311 6.4 17.7 0.00 0.00 0.00 26 1007.6
20260503203953 23 284 8.0 20.9 0.00 0.00 0.00 28 1007.6
20260503203453 23 304 6.4 17.7 0.00 0.00 0.00 29 1007.6
20260503202953 23 321 4.8 12.9 0.00 0.00 0.00 26 1007.6
20260503202453 23 302 4.8 8.0 0.00 0.00 0.00 29 1007.6
20260503201953 22 318 8.0 16.1 0.00 0.00 0.00 28 1007.6
20260503201453 22 296 9.7 17.7 0.00 0.00 0.00 34 1007.6
20260503200953 22 249 11.3 25.7 0.00 0.00 0.00 36 1007.6
20260503200453 22 293 11.3 20.9 0.00 0.00 0.00 35 1007.7
20260503195953 22 291 9.7 25.7 0.00 0.00 0.00 37 1007.7
20260503195453 21 295 9.7 20.9 0.00 0.00 0.00 38 1007.9
20260503194953 21 214 9.7 20.9 0.00 0.00 0.00 39 1008.0
20260503194453 21 242 9.7 19.3 0.00 0.00 0.00 42 1008.0
20260503193953 21 139 11.3 17.7 0.00 0.00 0.00 40 1008.0
20260503193453 21 290 9.7 19.3 0.00 0.00 0.00 42 1008.1
20260503192953 21 263 9.7 16.1 0.00 0.00 0.00 40 1008.0
20260503192453 21 285 9.7 19.3 0.00 0.00 0.00 44 1008.1
20260503191953 21 250 9.7 24.1 0.00 0.00 0.00 42 1007.9
20260503191453 20 215 9.7 17.7 0.00 0.00 0.00 45 1008.0
20260503190953 20 275 11.3 20.9 0.00 0.00 0.00 46 1008.3
20260503190453 20 281 9.7 22.5 0.00 0.00 0.00 46 1008.3
20260503185953 19 293 8.0 22.5 0.00 0.00 0.00 45 1008.3
20260503185453 19 248 9.7 20.9 0.00 0.00 0.00 45 1008.2
20260503184953 19 263 11.3 19.3 0.00 0.00 0.00 45 1008.2
20260503184453 19 163 11.3 19.3 0.00 0.00 0.00 48 1008.3
20260503183953 19 256 12.9 30.6 0.00 0.00 0.00 46 1008.5
20260503183453 20 268 12.9 32.2 0.00 0.00 0.00 44 1008.5
20260503182953 20 225 11.3 25.7 0.00 0.00 0.00 45 1008.4
20260503182453 20 284 9.7 19.3 0.00 0.00 0.00 45 1008.4
20260503181954 20 232 6.4 19.3 0.00 0.00 0.00 44 1008.2
20260503181453 20 267 6.4 19.3 0.00 0.00 0.00 44 1008.2
20260503180953 20 238 3.2 12.9 0.00 0.00 0.00 45 1008.2
20260503180454 20 266 4.8 9.7 0.00 0.00 0.00 44 1008.0
20260503175954 20 201 6.4 12.9 0.00 0.00 0.00 42 1008.0
20260503175454 20 249 8.0 19.3 0.00 0.00 0.00 41 1008.4
20260503174954 20 297 9.7 17.7 0.00 0.00 0.00 41 1008.8
20260503174454 20 288 12.9 24.1 0.00 0.00 0.00 41 1009.2
20260503173954 20 291 11.3 25.7 0.00 0.00 0.00 40 1009.0
20260503173454 20 238 9.7 24.1 0.00 0.00 0.00 41 1008.8
20260503172954 20 200 9.7 19.3 0.00 0.00 0.00 42 1009.0
20260503172454 20 253 8.0 19.3 0.00 0.00 0.00 44 1008.9
20260503171954 20 263 8.0 17.7 0.00 0.00 0.00 46 1009.0
20260503171454 20 284 9.7 19.3 0.00 0.00 0.00 43 1009.1
20260503170954 19 285 9.7 20.9 0.00 0.00 0.00 43 1009.1
20260503170454 19 284 8.0 16.1 0.00 0.00 0.00 45 1009.2
20260503150954 16 243 9.7 17.7 0.00 0.00 0.00 50 1009.6
20260503150454 15 224 11.3 25.7 0.00 0.00 0.00 49 1009.7